Regional Weather Roundup
Issued by NWS Sioux Falls, SD

Home | Current Version | Previous Version | Graphics & Text | Print | Product List | Glossary Off
Versions: 1 2 3 4 5 6 7 8 9 10 11 12 13 14 15 16 17 18 19 20 21 22 23 24 25 26 27 28 29 30 31 32 33 34 35 36 37 38 39 40 41 42 43 44 45 46 47 48 49 50

000
ASUS43 KFSD 230502
RWRFSD

WEATHER ROUNDUP FOR SE SOUTH DAKOTA/SW MINNESOTA/NW IOWA
NATIONAL WEATHER SERVICE SIOUX FALLS SD
1200 AM CDT SAT JUL 23 2016

NOTE: "FAIR" INDICATES FEW OR NO CLOUDS BELOW 12,000 FEET WITH NO
SIGNIFICANT WEATHER AND OR OBSTRUCTIONS TO VISIBILITY.


SDZ038>040-050-052>070-230600-
SOUTHEAST SOUTH DAKOTA

CITY           SKY/WX    TMP DP  RH WIND       PRES   REMARKS
BROOKINGS      CLOUDY    77  71  82 E7        29.95F
CHAMBERLAIN    CLOUDY    83  79  88 E6        29.92F
HURON          MOCLDY    81  76  84 NE7       29.93S
MADISON        FAIR      77  77 100 SE9G18    29.95S
MITCHELL       MOCLDY    82  78  88 E6        29.92R
SIOUX FALLS    CLOUDY    82  78  88 E8        29.94R
WINNER         FAIR      84  74  71 E10       29.91F
YANKTON        MOCLDY    82  77  83 E7        29.89F
$$

MNZ071-072-080-081-089-090-097-098-230600-
SOUTHWEST MINNESOTA

CITY           SKY/WX    TMP DP  RH WIND       PRES   REMARKS
FAIRMONT       PTCLDY    79  48  34 E6        29.95F
JACKSON        CLOUDY    79  75  89 E6        29.98S
LUVERNE        CLOUDY    79  75  89 E3        29.96S
MARSHALL       MOCLDY    76  70  82 E6        29.96S
MONTEVIDEO     CLOUDY    73  70  88 S6        29.98S
REDWOOD FALLS  MOCLDY    78  68  71 E5        29.96S
TRACY          CLOUDY    76  72  87 E5        29.97S
WORTHINGTON    MOCLDY    79  78  97 E6        29.98S
$$

IAZ001>003-012>014-020>022-031-032-NEZ013-014-SDZ071-230600-
NORTHWEST IOWA

CITY           SKY/WX    TMP DP  RH WIND       PRES   REMARKS
CHEROKEE       CLOUDY    81  80  96 E5        29.94R
DENISON        PTCLDY    81  79  94 SE7       29.93S
ESTHERVILLE    MOCLDY    79  78  97 SE7       29.95F
LE MARS        CLOUDY    82  79  89 SE7       29.94R
SHELDON        CLOUDY    79  79 100 SE5       29.94S
SIOUX CITY     NOT AVBL
SPENCER        MOCLDY    81  77  88 SE10      29.95F
STORM LAKE     PTCLDY    81  79  94 SE8       29.96R
$$

ABBREVIATIONS USED IN REMARKS
   TC - TEMPERATURE IN CELSIUS
  WCI - WIND CHILL INDEX
   HX - HEAT INDEX
  VSB - VISIBILITY





USA.gov is the U.S. government's official web portal to all federal, state and local government web resources and services.